Location: El Abasto
(10.3790°N, 67.5897°W)
Time: 18:20:06
(UTC+00:00)

Landsat 7 - Pass Details

Date: 19 May 2024
Orbit: 690 x 692 km, 97.9° (Epoch: 12 June)

Event Time Altitude Azimuth Distance (km) Brightness Sun altitude
Exits shadow 23:36:44 - 164° (SSE) 2,691 6.5 -12.4°
Reaches altitude 10° 23:38:06 10° 163° (SSE) 2,140 5.9 -12.7°
Maximum altitude 23:42:46 76° 78° (ENE) 713 3.7 -13.8°
Drops below altitude 10° 23:47:27 10° 353° (N) 2,138 6.7 -14.8°
Sets 23:49:41 0° 351° (N) 3,053 7.6 -15.4°
